Tracking 20232 objects as of 22-Jan-2020
HD Live streaming from Space Station
objects crossing your sky now

METEOR 2-17 DEB

Track METEOR 2-17 DEB now!
10-day predictions


NORAD ID: 31401
Int'l Code: 1988-005W
Perigee: 893.2 km
Apogee: 922.1 km
Inclination: 82.5 °
Period: 103.0 minutes
Semi major axis: 7278 km
RCS: 0.0104 m2 (small)
Launch date: January 30, 1988
Source: Commonwealth of Independent States (former USSR) (CIS)
Launch site: PLESETSK MISSILE AND SPACE COMPLEX (PKMTR)

Note: This is SATELLITE DEBRIS
aabbcc
Your satellite tracking list
Your tracking list is empty




NASA's NSSDC Master Catalog

Two Line Element Set (TLE):
1 31401U 88005W   20020.60357191  .00000791  00000-0  54521-3 0  9993
2 31401  82.5337 346.6999 0019864  50.0227 310.2681 13.98055450674692
Source of the keplerian elements: AFSPC